{"data":{"norad_id":67355,"intl_designator":"2026-003X","name":"STARLINK-36477","alt_names":[],"object_type":"PAYLOAD","status":"ACTIVE","operator":null,"country":"US","launch_date":"2026-01-09","launch_site_code":"AFETR","launch_vehicle":null,"mission":null,"orbit_class":"UNKNOWN","rcs_meters":null,"size_class":null,"mass_kg":null,"dimensions":null,"purposes":["comms"],"wikipedia_slug":null,"has_3d_model":false,"image_url":null,"decayed_at":null,"tle_current":{"epoch":"2026-05-25T02:03:53.905248Z","epoch_age_seconds":81789,"freshness":"FRESH","line1":"1 67355U 26003X   26145.08604057  .00014096  00000+0  52062-3 0  9992","line2":"2 67355  42.9999 155.9780 0001340 258.5733 101.4968 15.27591079 20508","mean_motion":15.27591079,"eccentricity":0.000134,"inclination_deg":42.9999,"raan_deg":155.978,"arg_perigee_deg":258.5733,"mean_anomaly_deg":101.4968,"bstar":0.00052062,"rev_number":2050,"period_min":94.266065035066,"perigee_km":482.09652723699,"apogee_km":483.93531622002,"semimajor_km":6861.1529217285,"source":"CELESTRAK","updated_at":"2026-05-25T13:38:21.526773Z"}}}